Station SGOF1 - Tyndall AFB Tower C (N4), FL Image indicating link to RSS feed of recent meteorological observations for station SGOF1


Conditions at SGOF1 as of
(6:00 am CDT)
1100 GMT on 04/16/2024:
     

Click on the graph icon in the table below to see a time series plot of the last five days of that observation.

5-day plot - Atmospheric Pressure Atmospheric Pressure (PRES):30.11 in
5-day plot - Pressure Tendency Pressure Tendency (PTDY):+0.04 in ( Rising )
5-day plot - Air Temperature Air Temperature (ATMP): 68.5 °F
Previous observations
TIME
(CDT)
5-day plot - Wind Direction
WDIR
 
5-day plot - Wind Speed
WSPD
kts
5-day plot - Wind Gust
GST
kts
5-day plot - Wave Height
WVHT
ft
5-day plot - Dominant Wave Period
DPD
sec
5-day plot - Average Wave Period
APD
sec
5-day plot - Mean Wave Direction
MWD
 
5-day plot - Atmospheric Pressure
PRES
in
5-day plot - Pressure Tendency
PTDY
in
5-day plot - Air Temperature
ATMP
°F
5-day plot - Water Temperature
WTMP
°F
5-day plot - Dew Point
DEWP
°F
5-day plot - Salinity
SAL
psu
5-day plot - Visibility
VIS
nmi
5-day plot - Tide (above MLLW)
TIDE
ft
2024-04-16 05:00 am-------30.09+0.01 68.5-----
2024-04-16 04:00 am-------30.07-0.02 68.0-----
2024-04-16 03:00 am-------30.07-0.03 67.5-----
2024-04-16 02:00 am-------30.08-0.04 67.6-----
2024-04-16 01:00 am-------30.09-0.03 67.6-----
2024-04-16 12:00 am-------30.11-0.01 68.0-----
2024-04-15 11:00 pm-------30.12+0.02 68.2-----
2024-04-15 10:00 pm-------30.13+0.03 68.4-----
2024-04-15 09:00 pm-------30.12+0.01 68.5-----
2024-04-15 08:00 pm-------30.10+0.00 68.5-----
2024-04-15 07:00 pm-------30.10-0.01 68.9-----
2024-04-15 06:00 pm-------30.11-0.01 70.0-----
2024-04-15 05:00 pm-------30.11-0.03 69.8-----
2024-04-15 04:00 pm-------30.11-0.02 69.6-----
2024-04-15 03:00 pm-------30.12-0.03 69.1-----
2024-04-15 02:00 pm-------30.14-0.03 69.1-----
2024-04-15 01:00 pm-------30.14-0.02 68.2-----
2024-04-15 12:00 pm-------30.15+0.00 68.2-----
2024-04-15 11:00 am-------30.16+0.03 68.0-----
2024-04-15 10:00 am-------30.16+0.04 66.9-----
2024-04-15 09:00 am-------30.15+0.06 66.7-----
2024-04-15 08:00 am-------30.14+0.06 67.1-----
2024-04-15 07:00 am-------30.11+0.05 66.6-----
2024-04-15 06:00 am-------30.09+0.02 65.5-----